Location: Kailua
(21.4020°N, 157.7390°W)
Time: 07:31:10
(UTC-10:00)

Cosmos 2297 Rocket - Visible Passes

Search period start: 22 February 2017 00:00
Search period end: 04 March 2017 00:00
Orbit: 840 x 843 km, 71.0° (Epoch: 22 February)

Date Brightness Start Highest point End Pass type
(mag) Time Alt. Az. Time Alt. Az. Time Alt. Az.
23 Feb 4.0 20:09:08 10° SSE 20:10:21 16° SSE 20:10:21 16° SSE visible
24 Feb 3.3 19:54:09 10° SSE 19:57:20 26° SE 19:57:20 26° SE visible
24 Feb 4.9 21:38:37 10° WSW 21:39:16 12° WSW 21:39:16 12° WSW visible
25 Feb 2.9 19:39:11 10° SSE 19:43:58 29° ESE 19:44:37 28° E visible
25 Feb 4.3 21:23:22 10° WSW 21:26:35 22° W 21:26:35 22° W visible
26 Feb 4.5 06:27:40 10° N 06:32:23 27° ENE 06:37:05 10° SE visible
26 Feb 3.1 19:24:14 10° SSE 19:28:54 27° ESE 19:32:17 15° NE visible
26 Feb 4.1 21:08:07 10° WSW 21:12:44 25° WNW 21:14:18 23° NW visible
27 Feb 4.5 06:12:41 10° NNE 06:17:16 25° ENE 06:21:51 10° ESE visible
27 Feb 3.2 19:09:17 10° SSE 19:13:49 25° ESE 19:18:20 10° NE visible
27 Feb 4.0 20:52:54 10° SW 20:57:37 27° WNW 21:02:21 10° N visible
28 Feb 4.6 05:57:42 10° NNE 06:02:09 24° ENE 06:06:36 10° ESE visible
28 Feb 3.2 18:54:21 10° SSE 18:58:44 23° ESE 19:03:07 10° NE visible
28 Feb 4.0 20:37:40 10° SW 20:42:30 29° WNW 20:47:21 10° N visible
01 Mar 4.7 05:42:44 10° NNE 05:47:03 22° ENE 05:51:20 10° ESE visible
01 Mar 3.9 20:22:27 10° SW 20:27:23 31° WNW 20:32:21 10° N visible
02 Mar 4.7 05:27:46 10° NNE 05:31:56 21° ENE 05:36:04 10° ESE visible
02 Mar 3.9 20:07:15 10° SW 20:12:17 33° WNW 20:17:20 10° N visible
03 Mar 4.8 05:12:50 10° NNE 05:16:48 20° ENE 05:20:47 10° ESE visible
03 Mar 3.8 19:52:03 10° SW 19:57:10 35° WNW 20:02:19 10° N visible
